Preview of NWS' New Version of Forecast
This preview is not operational and should not be used for support decisions.

Regional Weather Roundup (RWR)

Issued by National Weather Service (NWS)

                            
000
ASUS43 KTOP 201359
RWRKS 

WEATHER ROUNDUP FOR KANSAS
NATIONAL WEATHER SERVICE GOODLAND KS
900 AM CDT TUE AUG 20 2019

NOTE:  "FAIR" INDICATES FEW OR NO CLOUDS BELOW 12,000 FEET WITH NO
SIGNIFICANT WEATHER AND/OR OBSTRUCTIONS TO VISIBILITY.

KSZ001>006-013>018-027>032-041>047-201500-
NORTHWEST KANSAS
  
CITY           SKY/WX    TMP DP  RH WIND       PRES   REMARKS
GOODLAND       SUNNY     74  60  61 W6        30.02S                  
HAYS           SUNNY     79  69  71 S7        29.92R                  
HILL CITY      SUNNY     80  67  64 S9        29.97R                  
RUSSELL        SUNNY     80  68  66 S15       29.95R                  
$$

KSZ061>065-074>080-084>089-201500-
SOUTHWEST KANSAS
  
CITY           SKY/WX    TMP DP  RH WIND       PRES   REMARKS
DODGE CITY     SUNNY     82  65  56 S15       30.01S                  
GARDEN CITY    SUNNY     76  63  64 S12       30.02R                  
GREAT BEND     SUNNY     81  69  67 S15       29.98R                  
LIBERAL        SUNNY     76  65  68 SW9       30.04R                  
$$

KSZ066>073-081>083-090>101-201500-
SOUTHEAST KANSAS
  
CITY           SKY/WX    TMP DP  RH WIND       PRES   REMARKS
CHANUTE        SUNNY     83  74  74 S9        30.03R                  
COFFEYVILLE    SUNNY     82  75  79 S7        30.02R                  
HUTCHINSON     SUNNY     83  70  64 S9        30.00R                  
MEDICINE LODGE   N/A     82  68  62 S6        29.99R                  
NEWTON         SUNNY     81  71  71 S10       30.02R                  
PARSONS        SUNNY     83  76  79 S7        30.04R                  
WICHITA INTL   MOSUNNY   83  71  67 S10       30.00R                  
WICHITA JABRA  SUNNY     83  71  67 S9        30.01R                  
WICHITA MCCONL SUNNY     82  68  62 SE10      30.01R                  
$$

KSZ007>012-019>026-033>040-048>060-102>105-201500-
NORTHEAST KANSAS
  
CITY           SKY/WX    TMP DP  RH WIND       PRES   REMARKS
CONCORDIA      SUNNY     82  71  69 SW10      29.95R                  
EMPORIA        SUNNY     84  73  69 SW13      29.99S                  
LAWRENCE       SUNNY     84  73  69 SW7       29.96F                  
MANHATTAN      SUNNY     82  73  74 CALM      29.96R                  
OLATHE IND     SUNNY     82  73  74 SW12      29.99F                  
OLATHE EXE     SUNNY     81  74  79 SW6       29.99S                  
SALINA         SUNNY     81  71  71 S10       29.96R                  
TOPEKA BILLARD SUNNY     82  72  71 VRB5      29.95F                  
TOPEKA FORBES  SUNNY     82  73  74 SW10      29.96F                  
$$